This demonstration page uses our WeatherBlox Daily Observations layout. Learn more.

Left ArrowRight Arrow

Hourly Observations for June 30, 2022

Temp ( °F °C ) Dew Point ( °F °C ) Humidity (%) Winds ( mph kmh ) Pressure ( in mb ) Visibility ( mi km ) Precip ( " mm )
12:53 am 00:53 Clear 78 25.6 53 11.7 42 42 S 17 28 29.92 1013 10 16 0.00 0.00
1:53 am 01:53 Clear 76 24.4 53 11.7 45 45 SSW 17 28 29.91 1013 10 16 0.00 0.00
2:53 am 02:53 Clear 74 23.3 53 11.7 48 48 SSW 14 22 29.91 1013 10 16 0.00 0.00
3:53 am 03:53 Clear 73 22.8 53 11.7 50 50 SSW 12 19 29.93 1014 10 16 0.00 0.00
4:53 am 04:53 Clear 71 21.7 54 12.2 55 55 S 12 19 29.91 1013 10 16 0.00 0.00
5:53 am 05:53 Clear 70 21.1 55 12.8 59 59 S 13 20 29.88 1012 10 16 0.00 0.00
6:53 am 06:53 Sunny 70 21.1 56 13.3 61 61 S 14 22 29.86 1011 10 16 0.00 0.00
7:53 am 07:53 Sunny 72 22.2 57 13.9 59 59 SSW 12 19 29.89 1012 10 16 0.00 0.00
8:53 am 08:53 Sunny 75 23.9 58 14.4 55 55 SSW 12 19 29.88 1012 10 16 0.00 0.00
9:53 am 09:53 Sunny 79 26.1 58 14.4 49 49 SSW 16 26 29.86 1011 10 16 0.00 0.00
10:53 am 10:53 Sunny 83 28.3 58 14.4 43 43 SW 13 20 29.85 1011 10 16 0.00 0.00
11:53 am 11:53 Sunny 86 30 59 15 40 40 SSW 14 22 29.85 1011 10 16 0.00 0.00
12:53 pm 12:53 Sunny 89 31.7 60 15.6 38 38 SSW 9 15 29.83 1010 10 16 0.00 0.00
1:53 pm 13:53 Sunny 92 33.3 59 15 33 33 WSW 5 7 29.83 1010 10 16 0.00 0.00
2:53 pm 14:53 Sunny 95 35 61 16.1 32 32 VRB 6 9 29.82 1010 10 16 0.00 0.00
3:53 pm 15:53 Sunny 93 33.9 59 15 32 32 W 6 9 29.83 1010 10 16 0.00 0.00
4:53 pm 16:53 Partly Cloudy 91 32.8 62 16.7 38 38 Calm 29.82 1010 10 16 0.00 0.00
5:53 pm 17:53 Sunny 92 33.3 62 16.7 37 37 NW 5 7 29.84 1010 10 16 0.00 0.00
6:53 pm 18:53 Sunny 95 35 60 15.6 31 31 N 6 9 29.82 1010 10 16 0.00 0.00
7:53 pm 19:53 Sunny 93 33.9 63 17.2 37 37 NNE 6 9 29.83 1010 10 16 0.00 0.00
8:53 pm 20:53 Sunny 84 28.9 61 16.1 46 46 ESE 6 9 29.86 1011 10 16 0.00 0.00
9:53 pm 21:53 Clear 78 25.6 64 17.8 62 62 NNE 7 11 29.89 1012 10 16 0.00 0.00
10:53 pm 22:53 Clear 79 26.1 63 17.2 58 58 ESE 6 9 29.92 1013 10 16 0.00 0.00
11:53 pm 23:53 Clear 76 24.4 63 17.2 64 64 E 3 6 29.94 1014 10 16 0.00 0.00

Powered by AerisWeather